Location: Newark
(48.8833°N, 0.9236°W)
Time: 20:29:56
(UTC+00:00)

Courier 1B - All Passes

Search period start: 13 November 2019 00:00
Search period end: 23 November 2019 00:00
Orbit: 963 x 1209 km, 28.3° (Epoch: 12 November)

Date Brightness Start Highest point End Pass type
(mag) Time Alt. Az. Time Alt. Az. Time Alt. Az.
13 Nov - 09:43:18 10° S 09:44:51 11° S 09:46:23 10° SSE daylight
14 Nov - 08:51:05 10° S 08:51:28 10° S 08:51:52 10° SSE daylight
14 Nov - 10:42:48 10° SSW 10:44:00 11° S 10:45:12 10° S daylight
15 Nov - 09:48:59 10° SSW 09:50:38 11° S 09:52:17 10° SSE daylight
16 Nov - 08:55:30 10° SSW 08:57:16 11° S 08:59:00 10° SSE daylight
17 Nov - 08:02:19 10° S 08:03:53 11° S 08:05:26 10° SSE daylight
18 Nov - 07:09:39 10° S 07:10:31 10° S 07:11:22 10° SSE daylight
18 Nov - 09:01:43 10° SSW 09:03:03 11° S 09:04:22 10° S daylight
19 Nov - 08:07:44 10° SSW 08:09:40 11° S 08:11:34 10° SSE daylight
20 Nov - 07:14:08 10° SSW 07:16:17 12° S 07:18:25 10° SSE daylight
21 Nov - 06:20:46 10° SSW 06:22:53 12° S 06:24:59 10° SSE visible
21 Nov - 08:14:37 10° SSW 08:15:26 10° S 08:16:16 10° S daylight
22 Nov - 05:27:42 10° S 05:29:28 11° S 05:31:14 10° SSE visible
22 Nov - 07:20:01 10° SSW 07:22:03 11° S 07:24:05 10° SSE daylight
